This is the latest recevied weather packets stored in our database for station/object HB9FHL-13. If no packets are shown the sender has not sent any weather packets the latest 10 day(s).
| Time | Temp. | Humidity | Pressure | Rain* | Wind** | Luminosity | Snow |
|---|---|---|---|---|---|---|---|
| 1778017955 | 12.78° C | - | 1009.6 hPa | 0 mm | - | - | - |
| 1778017655 | 13.33° C | - | 1009.6 hPa | 0 mm | - | - | - |
| 1778017354 | 12.22° C | - | 1007.1 hPa | 0 mm | - | - | - |
| 1778017059 | 12.78° C | - | 1009.8 hPa | 0 mm | - | - | - |
| 1778016753 | 13.89° C | - | 1008.3 hPa | 0 mm | - | - | - |
| 1778016453 | 12.78° C | - | 1005.9 hPa | 0 mm | - | - | - |
| 1778016152 | 12.78° C | - | 1009.1 hPa | 0 mm | - | - | - |
| 1778015852 | 12.22° C | - | 1011.8 hPa | 0 mm | - | - | - |
| 1778015550 | 12.78° C | - | 1010.5 hPa | 0 mm | - | - | - |
| 1778015249 | 13.89° C | - | 1006.2 hPa | 0 mm | - | - | - |
| 1778014946 | 13.89° C | - | 1009.8 hPa | 0 mm | - | - | - |
| 1778014645 | 13.33° C | - | 1002.9 hPa | 0 mm | - | - | - |
| 1778014345 | 13.33° C | - | 1007.4 hPa | 0 mm | - | - | - |
| 1778013740 | 12.78° C | - | 1006.6 hPa | 0 mm | - | - | - |
| 1778013439 | 12.78° C | - | 1007.8 hPa | 0 mm | - | - | - |
| 1778013139 | 12.78° C | - | 1010.6 hPa | 0 mm | - | - | - |
| 1778012537 | 12.78° C | - | 1011.7 hPa | 0 mm | - | - | - |
| 1778012237 | 12.22° C | - | 1007.7 hPa | 0 mm | - | - | - |
| 1778011936 | 12.22° C | - | 1004.2 hPa | 0 mm | - | - | - |
| 1778011636 | 12.78° C | - | 1008 hPa | 0 mm | - | - | - |
| 1778011335 | 12.78° C | - | 1012.6 hPa | 0 mm | - | - | - |
| 1778011317 | 12.78° C | - | 1009.5 hPa | 0 mm | - | - | - |
| 1778011035 | 12.78° C | - | 1009.5 hPa | 0 mm | - | - | - |
| 1778010979 | 12.22° C | - | 1008.4 hPa | 0 mm | - | - | - |
| 1778010734 | 12.22° C | - | 1008.4 hPa | 0 mm | - | - | - |
* Rain since midnight (hover to see other rain measurements)
** Current wind speed in m/s (hover to see current wind gust speed)